Location: Recife
(8.0585°S, 34.8848°W)
Time: 12:09:51
(UTC-03:00)

Transit 2A - Visible Passes

Search period start: 14 April 2026 00:00
Search period end: 24 April 2026 00:00
Orbit: 592 x 952 km, 66.7° (Epoch: 14 April)

Date Brightness Start Highest point End Pass type
(mag) Time Alt. Az. Time Alt. Az. Time Alt. Az.
19 Apr 8.0 19:13:57 10° SSW 19:15:47 21° S 19:15:47 21° S visible
20 Apr 6.7 18:37:55 10° S 18:42:54 41° SE 18:42:54 41° SE visible
20 Apr 9.0 20:22:28 10° WSW 20:23:28 13° WSW 20:23:28 13° WSW visible
21 Apr 7.3 18:02:18 10° SSE 18:07:08 25° ESE 18:12:09 10° ENE visible
21 Apr 8.0 19:44:49 10° SW 19:49:58 30° WNW 19:53:20 19° NNW visible
22 Apr 7.2 19:07:48 10° SW 19:13:36 49° WNW 19:19:38 10° N visible
23 Apr 6.4 18:31:12 10° SSW 18:37:14 83° WNW 18:43:31 10° NNE visible
